DW2489 Weather Reports


Display with metric or nautical units.
time (UTC)temp
F
wind
direction
speed
MPH
gust
MPH
rain 1hr
in
rain 24hr
in
rain mn
in
humidity
%
barometer
mb
20260903001031 68 296 0.0 5.0 0.00 0.09 0.08 1017.6
20260903000601 68 296 0.0 5.0 0.00 0.09 0.08 1017.2
20260903000030 68 256 1.0 6.0 0.00 0.09 0.08 1017.1
20260902235600 68 289 0.0 6.0 0.00 0.09 0.08 1016.8
20260902235030 68 178 1.0 3.0 0.00 0.09 0.08 1016.6
20260902234530 68 178 0.0 5.0 0.00 0.09 0.08 1016.6
20260902234030 68 178 2.0 6.0 0.00 0.09 0.08 1016.8
20260902233530 68 178 1.0 9.0 0.00 0.09 0.08 1016.6
20260902233030 68 188 1.0 9.0 0.00 0.09 0.08 1016.5
20260902232530 68 235 0.0 3.0 0.00 0.09 0.08 1016.3
20260902232030 68 236 1.0 3.0 0.00 0.09 0.08 1016.5
20260902231530 68 236 0.0 3.0 0.00 0.09 0.08 1017.0
20260902231030 68 236 0.0 3.0 0.00 0.09 0.08 1017.5
20260902230530 68 236 0.0 2.0 0.00 0.09 0.08 1017.7
20260902230031 69 234 0.0 3.0 0.00 0.09 0.08 1017.9
20260902225545 69 232 0.0 3.0 0.00 0.09 0.08 1017.9
20260902225100 69 232 0.0 0.0 0.00 0.09 0.08 1018.2
20260902224530 69 232 0.0 3.0 0.00 0.09 0.08 1018.3
20260902224030 69 232 0.0 3.0 0.00 0.09 0.08 1018.4
20260902223530 69 298 0.0 3.0 0.00 0.09 0.08 1018.5
20260902223030 69 244 0.0 6.0 0.00 0.09 0.08 1018.5
20260902222530 70 259 0.0 6.0 0.00 0.09 0.08 1018.5
20260902222031 70 132 0.0 5.0 0.00 0.09 0.08 1018.6
20260902221601 70 121 2.0 5.0 0.00 0.09 0.08 1018.6
20260902221030 70 233 0.0 3.0 0.00 0.09 0.08 1018.7
20260902220545 70 215 0.0 5.0 0.00 0.09 0.08 1018.7
20260902220030 70 214 0.0 5.0 0.00 0.09 0.08 1019.0
20260902215530 70 199 0.0 5.0 0.00 0.09 0.08 1019.0
20260902215030 70 193 0.0 5.0 0.00 0.09 0.08 1019.1
20260902214531 70 181 1.0 8.0 0.00 0.09 0.08 1019.2
20260902214030 70 179 0.0 8.0 0.00 0.09 0.08 1019.0
20260902213531 70 176 0.0 8.0 0.00 0.09 0.08 1018.9
20260902213030 70 327 2.0 6.0 0.00 0.09 0.08 1018.8
20260902212530 70 322 1.0 6.0 0.00 0.09 0.08 1019.0
20260902212031 70 211 2.0 6.0 0.00 0.09 0.08 1019.0
20260902211530 70 188 1.0 6.0 0.00 0.09 0.08 1019.1
20260902211030 70 178 0.0 6.0 0.00 0.09 0.08 1019.3
20260902210530 71 274 2.0 5.0 0.00 0.09 0.08 1019.2
20260902210045 71 201 0.0 6.0 0.00 0.09 0.08 1019.2
20260902205530 71 200 0.0 6.0 0.00 0.09 0.08 1019.1
20260902205030 71 206 2.0 6.0 0.00 0.09 0.08 1019.0
20260902204530 71 206 1.0 16.0 0.00 0.09 0.08 1019.0
20260902204101 71 195 2.0 16.0 0.00 0.09 0.08 1019.0
20260902203531 71 327 3.0 9.0 0.00 0.09 0.08 1018.8
20260902203031 71 174 1.0 9.0 0.00 0.09 0.08 1018.6
20260902202546 71 213 3.0 9.0 0.00 0.09 0.08 1018.7
20260902202030 71 301 6.0 9.0 0.00 0.09 0.08 1019.0
20260902201530 71 172 2.0 8.0 0.00 0.09 0.08 1019.0
20260902201045 71 183 0.0 5.0 0.00 0.09 0.08 1019.1
20260902200600 71 284 0.0 5.0 0.00 0.09 0.08 1019.2
20260902200030 71 284 1.0 5.0 0.00 0.09 0.08 1019.5
20260902195530 70 285 3.0 5.0 0.00 0.09 0.08 1019.3
20260902195031 70 187 0.0 6.0 0.00 0.09 0.08 1019.1
20260902194530 70 265 0.0 6.0 0.00 0.09 0.08 1019.3
20260902194030 70 204 0.0 8.0 0.00 0.09 0.08 1019.4
20260902193531 70 207 1.0 8.0 0.00 0.09 0.08 1019.4
20260902193030 70 232 3.0 6.0 0.00 0.09 0.08 1019.2
20260902192530 70 223 1.0 6.0 0.00 0.09 0.08 1019.1
20260902192030 70 153 0.0 5.0 0.00 0.09 0.08 1019.1
20260902191530 70 153 0.0 5.0 0.00 0.09 0.08 1019.3
20260902191030 70 147 0.0 3.0 0.01 0.09 0.08 1019.3
20260902190530 69 147 0.0 6.0 0.07 0.09 0.08 1019.3
20260902190100 69 147 2.0 6.0 0.07 0.09 0.08 1019.5
20260902185530 69 250 0.0 3.0 0.07 0.09 0.08 1019.6
20260902185045 69 250 0.0 3.0 0.07 0.09 0.08 1019.7
20260902184530 69 250 2.0 5.0 0.07 0.09 0.08 1019.5
20260902184030 68 250 0.0 5.0 0.07 0.09 0.08 1019.4
20260902183529 67 249 0.0 5.0 0.07 0.09 0.08 1019.4
20260902183044 67 207 0.0 0.0 0.07 0.09 0.08 1019.3
20260902182530 67 207 0.0 0.0 0.07 0.09 0.08 1019.4
20260902182031 67 207 0.0 2.0 0.07 0.09 0.08 1019.7
20260902181530 68 207 0.0 2.0 0.07 0.09 0.08 1020.0
20260902181030 68 207 0.0 0.0 0.06 0.08 0.07 1020.1
20260902180530 68 208 0.0 3.0 0.00 0.02 0.01 1019.9
20260902180030 68 208 0.0 5.0 0.00 0.02 0.01 1020.0
20260902175530 68 207 0.0 5.0 0.00 0.02 0.01 1020.0
20260902175029 68 208 1.0 5.0 0.00 0.02 0.01 1020.2
20260902174530 68 298 0.0 6.0 0.00 0.02 0.01 1020.2
20260902174029 68 298 0.0 8.0 0.00 0.02 0.01 1020.0
20260902173600 68 195 1.0 8.0 0.00 0.02 0.01 1019.7
20260902173030 69 253 0.0 3.0 0.00 0.02 0.01 1019.5
20260902172530 69 253 0.0 3.0 0.00 0.02 0.01 1019.6
20260902172030 69 253 0.0 0.0 0.00 0.02 0.01 1019.7
20260902171530 69 253 0.0 5.0 0.00 0.02 0.01 1019.7
20260902171031 69 253 0.0 5.0 0.00 0.02 0.01 1019.6
20260902170530 69 253 0.0 2.0 0.00 0.02 0.01 1019.5
20260902170030 69 253 0.0 3.0 0.00 0.02 0.01 1019.8
20260902165530 69 253 0.0 3.0 0.00 0.02 0.01 1020.0
20260902165031 69 253 0.0 2.0 0.00 0.02 0.01 1019.8
20260902164600 69 253 0.0 3.0 0.00 0.02 0.01 1020.1
20260902164030 68 253 0.0 3.0 0.00 0.02 0.01 1020.1
20260902163530 69 253 0.0 2.0 0.00 0.02 0.01 1020.2
20260902163030 69 253 0.0 0.0 0.00 0.02 0.01 1020.2
20260902162530 69 253 0.0 3.0 0.00 0.02 0.01 1020.3
20260902162059 69 253 0.0 3.0 0.00 0.02 0.01 1020.3
20260902161530 69 253 0.0 3.0 0.00 0.02 0.01 1020.4
20260902161030 68 253 0.0 3.0 0.00 0.02 0.01 1020.2
20260902160530 68 253 0.0 3.0 0.00 0.02 0.01 1020.3
20260902160029 68 253 0.0 3.0 0.00 0.02 0.01 1020.2
20260902155529 68 253 1.0 5.0 0.00 0.02 0.01 1020.4
20260902155030 68 253 1.0 5.0 0.00 0.02 0.01 1020.3
20260902154531 67 253 0.0 0.0 0.00 0.02 0.01 1020.4
20260902154030 67 253 0.0 2.0 0.00 0.02 0.01 1020.3
20260902153616 67 253 0.0 2.0 0.00 0.02 0.01 1020.4
20260902153030 67 253 1.0 3.0 0.00 0.02 0.01 1020.6
20260902152559 67 253 0.0 3.0 0.00 0.02 0.01 1020.8
20260902152059 67 253 0.0 3.0 0.00 0.02 0.01 1020.7
20260902151529 67 253 0.0 3.0 0.00 0.02 0.01 1020.8
20260902151030 67 253 2.0 3.0 0.00 0.02 0.01 1020.7
20260902150530 67 253 0.0 3.0 0.00 0.02 0.01 1020.6
20260902150030 67 253 0.0 3.0 0.00 0.02 0.01 1020.5
20260902145534 67 253 0.0 0.0 0.00 0.04 0.01 1020.7
20260902145029 67 253 0.0 0.0 0.00 0.08 0.01 1020.6
20260902144529 67 253 0.0 0.0 0.00 0.19 0.01 1020.7
20260902144059 67 253 0.0 0.0 0.00 0.20 0.01 1020.9
20260902143531 67 253 0.0 3.0 0.00 0.20 0.01 1020.9
20260902143045 67 253 0.0 3.0 0.00 0.20 0.01 1021.0
20260902142531 67 253 1.0 3.0 0.00 0.20 0.01 1020.9
20260902142030 67 253 0.0 3.0 0.00 0.20 0.01 1020.8
20260902141529 67 253 1.0 3.0 0.00 0.21 0.01 1020.7
20260902141029 67 253 0.0 0.0 0.00 0.22 0.01 1020.7
20260902140529 66 253 0.0 3.0 0.00 0.23 0.01 1020.6
20260902140029 66 253 0.0 3.0 0.00 0.24 0.01 1020.8
20260902135530 66 253 0.0 3.0 0.00 0.24 0.01 1020.8
20260902135029 66 253 0.0 3.0 0.00 0.24 0.01 1020.5
20260902134529 66 253 0.0 3.0 0.00 0.24 0.01 1020.5
20260902134030 66 253 0.0 0.0 0.00 0.24 0.01 1020.5
20260902133529 66 253 0.0 0.0 0.00 0.24 0.01 1020.3
20260902133029 66 253 0.0 5.0 0.00 0.24 0.01 1020.4
20260902132530 66 253 0.0 5.0 0.00 0.24 0.01 1020.6
20260902132029 65 253 0.0 0.0 0.00 0.24 0.01 1020.5
20260902131530 65 253 0.0 0.0 0.00 0.24 0.01 1020.5
20260902131029 65 253 0.0 0.0 0.00 0.24 0.01 1020.4
20260902130529 65 253 0.0 0.0 0.00 0.24 0.01 1020.2
20260902130029 65 253 0.0 0.0 0.00 0.24 0.01 1019.9
20260902125529 65 253 0.0 0.0 0.00 0.24 0.01 1020.2
20260902125029 65 253 0.0 0.0 0.00 0.24 0.01 1020.0
20260902124529 65 253 0.0 0.0 0.00 0.24 0.01 1020.0
20260902124029 65 253 0.0 0.0 0.00 0.26 0.01 1019.9
20260902123529 65 253 0.0 0.0 0.00 0.26 0.01 1019.8
20260902123029 65 253 0.0 0.0 0.00 0.27 0.01 1019.9
20260902122531 65 253 0.0 0.0 0.00 0.29 0.01 1019.9
20260902122029 65 253 0.0 0.0 0.00 0.30 0.01 1019.9
20260902121529 65 253 0.0 0.0 0.00 0.30 0.01 1020.1
20260902121030 65 253 0.0 0.0 0.00 0.30 0.01 1020.1
20260902120529 65 253 0.0 0.0 0.00 0.30 0.01 1020.0
20260902120029 65 253 0.0 0.0 0.00 0.30 0.01 1020.0
20260902115529 65 253 0.0 0.0 0.00 0.30 0.01 1019.9
20260902115129 65 253 0.0 0.0 0.00 0.30 0.01 1019.9
20260902114529 64 253 0.0 0.0 0.00 0.30 0.01 1019.8
20260902114029 64 253 0.0 0.0 0.00 0.30 0.01 1019.9
20260902113529 64 253 0.0 0.0 0.00 0.30 0.01 1019.7
20260902113029 64 253 0.0 0.0 0.00 0.30 0.01 1019.8
20260902112529 64 253 0.0 0.0 0.00 0.30 0.01 1020.0
20260902112029 64 253 0.0 0.0 0.00 0.31 0.01 1020.0
20260902111529 64 253 0.0 0.0 0.00 0.32 0.01 1020.1
20260902111029 64 253 0.0 0.0 0.00 0.33 0.01 1020.2
20260902110529 64 253 0.0 0.0 0.00 0.34 0.01 1020.1
20260902110044 64 253 0.0 0.0 0.00 0.35 0.01 1020.3
20260902105529 64 253 0.0 0.0 0.00 0.36 0.01 1020.2
20260902105044 64 253 0.0 0.0 0.00 0.38 0.01 1020.1
20260902104529 64 253 0.0 0.0 0.00 0.39 0.01 1020.2
20260902104029 64 253 0.0 0.0 0.00 0.39 0.01 1020.0
20260902103531 64 253 0.0 0.0 0.00 0.40 0.01 1019.8
20260902103044 64 253 0.0 0.0 0.00 0.40 0.01 1019.8
20260902102529 64 253 0.0 0.0 0.00 0.41 0.01 1019.9
20260902102030 64 253 0.0 0.0 0.00 0.42 0.01 1019.7
20260902101545 64 253 0.0 0.0 0.00 0.45 0.01 1019.7
20260902101045 64 253 0.0 0.0 0.00 0.49 0.01 1019.9
20260902100529 64 253 0.0 0.0 0.00 0.54 0.01 1019.8
20260902100029 64 253 0.0 0.0 0.00 0.58 0.01 1019.9
20260902095529 64 253 0.0 2.0 0.00 0.61 0.01 1019.8
20260902095030 64 253 0.0 2.0 0.00 0.64 0.01 1019.8
20260902094529 64 253 0.0 0.0 0.00 0.68 0.01 1019.6
20260902094029 64 253 0.0 0.0 0.00 0.71 0.01 1019.6
20260902093529 64 253 0.0 0.0 0.00 0.74 0.01 1019.5
20260902093029 64 253 0.0 0.0 0.00 0.76 0.01 1019.5
20260902092529 64 253 0.0 0.0 0.00 0.76 0.01 1019.5
20260902092030 64 253 0.0 0.0 0.00 0.78 0.01 1019.6
20260902091614 64 253 0.0 0.0 0.00 0.79 0.01 1019.5
20260902091029 64 253 0.0 0.0 0.00 0.81 0.01 1019.4
20260902090529 64 253 0.0 0.0 0.00 0.83 0.01 1019.4
20260902090029 64 253 0.0 0.0 0.00 0.84 0.01 1019.4
20260902085559 64 253 0.0 0.0 0.00 0.84 0.01 1019.4
20260902085029 64 253 0.0 0.0 0.00 0.84 0.01 1019.4
20260902084529 64 253 0.0 0.0 0.00 0.84 0.01 1019.6
20260902084030 64 253 0.0 0.0 0.00 0.84 0.01 1019.5
20260902083530 64 253 0.0 0.0 0.00 0.84 0.01 1019.4
20260902083029 64 253 0.0 0.0 0.00 0.84 0.01 1019.5
20260902082559 64 253 0.0 0.0 0.00 0.84 0.01 1019.4
20260902082029 64 253 0.0 0.0 0.00 0.84 0.01 1019.3
20260902081529 64 253 0.0 0.0 0.00 0.84 0.01 1019.4
20260902081029 64 253 0.0 0.0 0.00 0.84 0.01 1019.5
20260902080559 64 253 0.0 0.0 0.00 0.84 0.01 1019.5
20260902080029 64 253 0.0 0.0 0.00 0.84 0.01 1019.5
20260902075530 64 253 0.0 0.0 0.00 0.84 0.01 1019.4
20260902075029 64 253 0.0 0.0 0.00 0.84 0.01 1019.4
20260902074529 64 253 0.0 0.0 0.00 0.84 0.01 1019.5
20260902074029 64 253 0.0 0.0 0.00 0.84 0.01 1019.3
20260902073529 64 253 0.0 0.0 0.00 0.84 0.01 1019.3
20260902073029 64 253 0.0 0.0 0.00 0.84 0.01 1019.2
20260902072529 64 253 0.0 0.0 0.00 0.84 0.01 1019.2
20260902072029 64 253 0.0 0.0 0.00 0.84 0.01 1019.3
20260902071545 64 253 0.0 0.0 0.00 0.84 0.01 1019.3
20260902071029 64 253 0.0 0.0 0.00 0.84 0.01 1019.3
20260902070529 64 253 0.0 0.0 0.00 0.84 0.01 1019.3
20260902070029 64 253 0.0 0.0 0.00 0.84 0.01 1019.4
20260902065600 64 253 0.0 0.0 0.00 0.84 0.01 1019.6
20260902065029 64 253 0.0 0.0 0.00 0.84 0.01 1019.7
20260902064528 64 253 0.0 0.0 0.00 0.84 0.01 1019.6
20260902064029 64 253 0.0 0.0 0.00 0.84 0.01 1019.6
20260902063529 64 253 0.0 0.0 0.00 0.84 0.01 1019.5
20260902063029 64 253 0.0 0.0 0.00 0.84 0.01 1019.4
20260902062544 64 253 0.0 0.0 0.00 0.84 0.01 1019.5
20260902062044 64 253 0.0 0.0 0.01 0.84 0.01 1019.4
20260902061543 65 253 0.0 0.0 0.01 0.84 0.01 1019.4
20260902061028 65 253 0.0 0.0 0.01 0.84 0.01 1019.5
20260902060529 65 253 0.0 0.0 0.01 0.84 0.01 1019.5
20260902060029 65 253 0.0 0.0 0.01 0.84 0.01 1019.4
20260902055529 65 253 0.0 0.0 0.01 0.84 0.01 1019.4
20260902055029 65 253 0.0 0.0 0.01 0.84 0.01 1019.5
20260902054529 66 253 0.0 0.0 0.01 0.84 0.01 1019.5
20260902054029 66 253 0.0 0.0 0.01 0.84 0.01 1019.5
20260902053614 66 253 0.0 0.0 0.01 0.84 0.01 1019.4
20260902053030 66 253 0.0 0.0 0.01 0.84 0.01 1019.5
20260902052544 66 253 0.0 0.0 0.01 0.84 0.01 1019.4
20260902052029 66 253 0.0 0.0 0.00 0.83 0.00 1019.2
20260902051544 66 253 0.0 0.0 0.00 0.83 0.00 1019.1
20260902051028 66 253 0.0 0.0 0.00 0.83 0.00 1019.0
20260902050530 66 253 0.0 0.0 0.00 0.83 0.00 1018.9
20260902050028 66 253 0.0 0.0 0.00 0.83 0.00 1018.8
20260902045545 66 253 0.0 0.0 0.00 0.83 0.00 1018.8
20260902045029 66 253 0.0 0.0 0.00 0.83 0.00 1018.7
20260902044529 66 253 0.0 5.0 0.00 0.83 0.00 1018.6
20260902044029 66 253 0.0 5.0 0.00 0.83 0.00 1018.4
20260902043529 66 253 0.0 0.0 0.01 0.83 0.00 1018.2
20260902043029 66 253 0.0 3.0 0.01 0.83 0.00 1018.3
20260902042530 66 253 0.0 3.0 0.01 0.83 0.00 1018.2
20260902042029 66 253 2.0 3.0 0.01 0.83 0.00 1018.1
20260902041045 66 253 0.0 0.0 0.01 0.83 0.00 1018.1
20260902040529 66 253 0.0 0.0 0.01 0.83 0.00 1017.9
20260902040044 66 253 0.0 0.0 0.01 0.83 0.00 1017.9
20260902035529 66 253 0.0 0.0 0.01 0.83 0.83 1017.8
20260902035029 66 253 0.0 0.0 0.01 0.83 0.83 1017.9
20260902034529 66 253 0.0 0.0 0.01 0.83 0.83 1017.8
20260902034028 66 253 0.0 0.0 0.01 0.83 0.83 1017.8
20260902033528 66 253 0.0 0.0 0.00 0.82 0.82 1017.8
20260902033029 67 253 0.0 0.0 0.00 0.82 0.82 1017.7
20260902032530 67 253 0.0 2.0 0.00 0.82 0.82 1017.6
20260902032044 67 253 0.0 3.0 0.00 0.82 0.82 1017.7
20260902031530 67 252 1.0 3.0 0.00 0.82 0.82 1017.7
20260902031028 67 241 0.0 2.0 0.00 0.82 0.82 1017.8
20260902030529 67 225 0.0 0.0 0.00 0.82 0.82 1017.8
20260902030043 67 212 0.0 3.0 0.00 0.82 0.82 1017.8
20260902025558 67 206 0.0 3.0 0.00 0.82 0.82 1017.8
20260902025029 68 178 1.0 3.0 0.00 0.82 0.82 1017.9
20260902024529 68 125 0.0 5.0 0.00 0.82 0.82 1017.9
20260902024058 68 95 0.0 5.0 0.00 0.82 0.82 1017.9
20260902023529 68 50 0.0 5.0 0.00 0.82 0.82 1018.0
20260902023028 68 48 0.0 5.0 0.00 0.82 0.82 1018.0
20260902022600 68 48 0.0 0.0 0.00 0.82 0.82 1018.0
20260902022028 68 48 0.0 0.0 0.00 0.82 0.82 1018.0
20260902021528 68 48 0.0 0.0 0.00 0.82 0.82 1018.1
20260902021028 68 48 0.0 0.0 0.00 0.82 0.82 1018.0
20260902020528 68 48 0.0 0.0 0.00 0.82 0.82 1018.0
20260902020028 68 48 0.0 0.0 0.00 0.82 0.82 1018.1
20260902015530 69 48 0.0 0.0 0.00 0.82 0.82 1018.0
20260902015028 69 48 0.0 0.0 0.00 0.82 0.82 1017.8
20260902014528 69 48 0.0 0.0 0.00 0.82 0.82 1017.8
20260902014029 69 48 0.0 0.0 0.00 0.82 0.82 1017.7
20260902013528 69 48 0.0 0.0 0.00 0.82 0.82 1017.6
20260902013028 69 48 0.0 0.0 0.00 0.82 0.82 1017.6
20260902012529 69 48 0.0 5.0 0.00 0.82 0.82 1017.5
20260902012043 69 48 0.0 5.0 0.00 0.82 0.82 1017.5
20260902011528 69 48 0.0 5.0 0.00 0.82 0.82 1017.3
20260902011028 69 48 0.0 5.0 0.00 0.82 0.82 1017.4
20260902010528 69 48 0.0 3.0 0.00 0.82 0.82 1017.4
20260902010029 69 48 0.0 3.0 0.00 0.82 0.82 1017.4
20260902005528 69 48 0.0 5.0 0.00 0.82 0.82 1017.2
20260902005028 69 48 0.0 5.0 0.00 0.82 0.82 1017.2
20260902004528 69 45 0.0 2.0 0.00 0.82 0.82 1017.3
20260902004029 69 47 0.0 8.0 0.00 0.82 0.82 1017.2
20260902003528 69 52 0.0 8.0 0.00 0.82 0.82 1017.2
20260902003129 69 39 2.0 6.0 0.00 0.82 0.82 1017.1
20260902002558 69 22 0.0 6.0 0.00 0.82 0.82 1017.1
20260902002028 69 22 3.0 6.0 0.00 0.82 0.82 1017.2
20260902001528 70 22 2.0 6.0 0.00 0.82 0.82 1017.2